{"data":{"norad_id":59662,"intl_designator":"2024-084J","name":"STARLINK-31886","alt_names":[],"object_type":"PAYLOAD","status":"ACTIVE","operator":null,"country":"US","launch_date":"2024-05-06","launch_site_code":"AFETR","launch_vehicle":null,"mission":null,"orbit_class":"UNKNOWN","rcs_meters":null,"size_class":null,"mass_kg":null,"dimensions":null,"purposes":["comms"],"wikipedia_slug":null,"has_3d_model":false,"image_url":null,"decayed_at":null,"tle_current":{"epoch":"2026-09-21T14:27:13.341600Z","epoch_age_seconds":76138,"freshness":"FRESH","line1":"1 59662U 24084J   26264.60223775  .00000368  00000+0  22896-4 0  9995","line2":"2 59662  43.0013  15.5433 0001213 275.9693  84.1020 15.27576317134333","mean_motion":15.27576317,"eccentricity":0.0001213,"inclination_deg":43.0013,"raan_deg":15.5433,"arg_perigee_deg":275.9693,"mean_anomaly_deg":84.102,"bstar":2.2896e-5,"rev_number":13433,"period_min":94.266975991616,"perigee_km":482.22786107759,"apogee_km":483.89238749994,"semimajor_km":6861.1971242888,"source":"CELESTRAK","updated_at":"2026-09-22T09:00:49.026420Z"}}}